Weather History for Kecskemet, Hungary

Change the Weather History Date:

Wednesday, February 27, 2013

  Actual Average (LHBP) Record (LHBP)
Temperature  
Mean Temperature 42 °F -  
Max Temperature 44 °F 42 °F 62 °F (2008)
Min Temperature 39 °F 26 °F 10 °F (2003)
Degree Days  
Heating Degree Days 24    
Moisture  
Dew Point 40 °F    
Average Humidity 90    
Maximum Humidity 100    
Minimum Humidity 76    
Precipitation  
Precipitation 0.00 in - - ()
Sea Level Pressure  
Sea Level Pressure 30.20 in    
Wind  
Wind Speed 5 mph ()    
Max Wind Speed 11 mph    
Max Gust Speed -    
Visibility 5.5 miles    
Events Rain    
Averages and records for this station are not official NWS values.
T = Trace of Precipitation, MM = Missing Value Source: Averaged Metar Reports

Daily Weather History Graph

Daily Weather History Graph

Search for Another Location

Airport:

Trip Planner

Search our weather history database for the weather conditions in past years. The results will help you decide how hot, cold, wet, or windy it might be!

Date:

Astronomy

Feb. 27, 2013 Rise Set
Actual Time 6:24 AM CET 5:23 PM CET
Civil Twilight 5:53 AM CET 5:54 PM CET
Nautical Twilight 5:18 AM CET 6:29 PM CET
Astronomical Twilight 4:43 AM CET 7:04 PM CET
Moon 7:36 PM CET (2/27) 6:40 AM CET (2/27)
Length of Visible Light 12h 00m
Length of Day
10h 59m
Full, 97% of the Moon is Illuminated
Feb 27
Full
Mar 4
Last Quarter
Mar 11
New
Mar 19
First Quarter
Mar 27
Full

Hourly Weather History & Observations

Time (CET) Temp. Windchill Dew Point Humidity Pressure Visibility Wind Dir Wind Speed Gust Speed Precip Events Conditions
12:15 AM 44.6 °F 42.3 °F 42.8 °F 93% 30.15 in 6.2 mi West 4.5 mph - N/A   Overcast
12:45 AM 44.6 °F 42.3 °F 42.8 °F 93% 30.18 in 6.2 mi WSW 4.5 mph - N/A   Overcast
12:56 AM 44.6 °F 42.3 °F 42.8 °F 93% 30.15 in 6.2 mi SW 4.5 mph - N/A Rain Light Rain
1:15 AM 44.6 °F 40.8 °F 42.8 °F 93% 30.15 in 6.2 mi West 6.7 mph - N/A Rain Light Rain
1:45 AM 42.8 °F 40.2 °F 42.8 °F 100% 30.15 in 6.2 mi West 4.5 mph - N/A Rain Light Rain
2:15 AM 42.8 °F 40.2 °F 41.0 °F 93% 30.15 in 6.2 mi NNE 4.5 mph - N/A Rain Light Rain
2:45 AM 41.0 °F 38.1 °F 41.0 °F 100% 30.15 in 6.2 mi NNE 4.5 mph - N/A Rain Light Rain
3:15 AM 41.0 °F 38.1 °F 41.0 °F 100% 30.15 in 5.0 mi East 4.5 mph - N/A   Overcast
3:45 AM 41.0 °F 38.1 °F 39.2 °F 93% 30.15 in 5.0 mi ENE 4.5 mph - N/A   Overcast
4:15 AM 41.0 °F 38.1 °F 39.2 °F 93% 30.15 in 5.0 mi ENE 4.5 mph - N/A   Overcast
4:45 AM 41.0 °F - 39.2 °F 93% 30.15 in 5.0 mi ENE 2.2 mph - N/A   Overcast
5:15 AM 39.2 °F 36.0 °F 39.2 °F 100% 30.15 in 5.0 mi ENE 4.5 mph - N/A   Overcast
5:45 AM - - - N/A% - 5.0 mi NE 6.7 mph - N/A   Overcast
6:15 AM 39.2 °F 36.0 °F 39.2 °F 100% 30.18 in 5.0 mi East 4.5 mph - N/A   Overcast
6:45 AM 39.2 °F 36.0 °F 39.2 °F 100% 30.18 in 5.0 mi East 4.5 mph - N/A   Overcast
7:15 AM 41.0 °F 38.1 °F 37.4 °F 87% 30.18 in 6.2 mi ENE 4.5 mph - N/A   Overcast
7:45 AM 41.0 °F 38.1 °F 37.4 °F 87% 30.18 in 6.2 mi ENE 4.5 mph - N/A   Mostly Cloudy
8:15 AM 41.0 °F 35.4 °F 37.4 °F 87% 30.18 in 6.2 mi NE 8.9 mph - N/A   Mostly Cloudy
8:45 AM - - - N/A% - 6.2 mi NE 11.2 mph - N/A   Overcast
9:15 AM 42.8 °F 37.6 °F 37.4 °F 81% 30.21 in 6.2 mi NE 8.9 mph - N/A   Mostly Cloudy
9:45 AM 42.8 °F 37.6 °F 37.4 °F 81% 30.21 in 6.2 mi NE 8.9 mph - N/A   Mostly Cloudy
10:15 AM 42.8 °F 38.7 °F 37.4 °F 81% 30.21 in 6.2 mi NNE 6.7 mph - N/A   Mostly Cloudy
10:45 AM 42.8 °F 38.7 °F 39.2 °F 87% 30.21 in 6.2 mi NNE 6.7 mph - N/A   Mostly Cloudy
11:15 AM 42.8 °F 40.2 °F 39.2 °F 87% 30.21 in 6.2 mi North 4.5 mph - N/A   Mostly Cloudy
11:30 AM 42.8 °F 40.2 °F 39.2 °F 87% 30.21 in 3.7 mi North 4.5 mph - N/A Rain Light Rain Showers
11:45 AM - - - N/A% - 6.2 mi NNE 6.7 mph - N/A   Mostly Cloudy
12:15 PM 42.8 °F - 41.0 °F 93% 30.21 in 5.0 mi NW 2.2 mph - N/A   Mostly Cloudy
12:45 PM 44.6 °F 42.3 °F 41.0 °F 87% 30.21 in 6.2 mi NW 4.5 mph - N/A   Mostly Cloudy
1:15 PM 44.6 °F 40.8 °F 39.2 °F 81% 30.21 in 6.2 mi North 6.7 mph - N/A   Mostly Cloudy
1:45 PM 44.6 °F 40.8 °F 37.4 °F 76% 30.21 in 6.2 mi North 6.7 mph - N/A Rain Light Rain Showers
2:15 PM 44.6 °F 39.8 °F 39.2 °F 81% 30.21 in 6.2 mi North 8.9 mph - N/A Rain Light Rain Showers
2:45 PM - - - N/A% - 6.2 mi NNE 6.7 mph - N/A   Mostly Cloudy
3:15 PM 44.6 °F 42.3 °F 41.0 °F 87% 30.21 in 6.2 mi NNE 4.5 mph - N/A Rain Light Rain
3:36 PM 44.6 °F 42.3 °F 41.0 °F 87% 30.21 in 1.9 mi NNE 4.5 mph - N/A Rain Rain Showers
3:45 PM 44.6 °F 42.3 °F 41.0 °F 87% 30.21 in 3.7 mi NE 4.5 mph - N/A Rain Light Rain Showers
4:15 PM 42.8 °F 40.2 °F 41.0 °F 93% 30.21 in 5.0 mi ENE 4.5 mph - N/A Rain Light Rain
4:45 PM 42.8 °F 40.2 °F 41.0 °F 93% 30.21 in 6.2 mi ENE 4.5 mph - N/A Rain Light Rain
5:15 PM 42.8 °F - 41.0 °F 93% 30.24 in - Calm Calm - N/A   Clear
5:45 PM 42.8 °F - 39.2 °F 87% 30.24 in - Calm Calm - N/A   Clear
6:15 PM 42.8 °F - 41.0 °F 93% 30.24 in 5.0 mi West 2.2 mph - N/A   Unknown
6:45 PM 41.0 °F - 41.0 °F 100% 30.24 in 5.0 mi WNW 2.2 mph - N/A   Mostly Cloudy
7:45 PM 42.8 °F 40.2 °F 41.0 °F 93% 30.27 in 5.0 mi NW 4.5 mph - N/A   Mostly Cloudy
8:15 PM 41.0 °F 38.1 °F 41.0 °F 100% 30.27 in 5.0 mi NNW 4.5 mph - N/A   Overcast
8:45 PM - - - N/A% - 1.7 mi Variable 4.5 mph - N/A   Clear
9:15 PM 42.8 °F 38.7 °F 39.2 °F 87% 30.27 in 5.0 mi NNE 6.7 mph - N/A   Overcast
9:45 PM 42.8 °F 38.7 °F 35.6 °F 76% 30.27 in 6.2 mi NNE 6.7 mph - N/A   Mostly Cloudy
10:15 PM 42.8 °F 37.6 °F 35.6 °F 76% 30.27 in 6.2 mi NE 8.9 mph - N/A   Mostly Cloudy
10:45 PM 41.0 °F 35.4 °F 33.8 °F 76% 30.30 in 6.2 mi NE 8.9 mph - N/A   Mostly Cloudy